Location: Fort Wayne
(41.1310°N, 85.1290°W)
Time: 11:57:15
(UTC-04:00)

Cosmos 1980 - Visible Passes

Search period start: 25 July 2014 00:00
Search period end: 04 August 2014 00:00
Orbit: 841 x 846 km, 71.0° (Epoch: 24 July)

Date Brightness Start Highest point End Pass type
(mag) Time Alt. Az. Time Alt. Az. Time Alt. Az.
25 Jul 4.3 00:00:00 12° N 00:04:55 44° ENE 00:05:55 40° E visible
25 Jul 5.2 01:44:08 10° NW 01:47:45 25° W 01:47:45 25° W visible
25 Jul 4.3 23:45:07 10° N 23:50:28 42° ENE 23:51:41 37° E visible
26 Jul 5.1 01:29:39 10° NW 01:33:31 26° W 01:33:31 26° W visible
26 Jul 4.4 23:30:42 10° N 23:36:01 41° ENE 23:37:28 34° E visible
27 Jul 5.0 01:15:09 10° NW 01:19:19 28° W 01:19:19 28° W visible
27 Jul 4.5 23:16:18 10° N 23:21:35 39° ENE 23:23:18 32° E visible
28 Jul 4.9 01:00:41 10° NW 01:05:09 29° W 01:05:09 29° W visible
28 Jul 4.5 23:01:54 10° N 23:07:08 38° ENE 23:09:10 29° E visible
29 Jul 4.9 00:46:12 10° NW 00:51:01 31° WSW 00:51:01 31° WSW visible
29 Jul 4.6 22:47:30 10° N 22:52:41 36° ENE 22:55:03 26° ESE visible
30 Jul 4.8 00:31:43 10° NW 00:36:40 32° WSW 00:36:54 32° WSW visible
30 Jul 4.6 22:33:06 10° N 22:38:15 35° ENE 22:40:59 23° ESE visible
31 Jul 4.7 00:17:15 10° NW 00:22:16 34° WSW 00:22:50 33° WSW visible
31 Jul 4.6 22:18:42 10° N 22:23:48 34° ENE 22:26:57 20° ESE visible
01 Aug 4.7 00:02:47 10° NW 00:07:51 35° WSW 00:08:49 33° SW visible
01 Aug 4.7 22:04:18 10° N 22:09:21 32° ENE 22:12:58 17° ESE visible
01 Aug 4.7 23:48:19 10° NW 23:53:26 37° WSW 23:54:49 32° SW visible
02 Aug 4.7 21:49:54 10° N 21:54:54 31° ENE 21:59:01 14° ESE visible
02 Aug 4.7 23:33:52 10° NW 23:39:02 38° WSW 23:40:52 30° SW visible
03 Aug 4.8 21:35:31 10° N 21:40:28 30° NE 21:45:06 11° ESE visible
03 Aug 4.6 23:19:24 10° NW 23:24:37 40° WSW 23:26:58 27° SSW visible
